Regional Weather Roundup
Issued by NWS

Home | Current Version | Previous Version | Text Only | Print | Product List | Glossary On
Versions: 1 2 3 4 5 6 7 8 9 10 11 12 13 14 15 16 17 18 19 20 21 22 23 24 25 26 27 28 29 30 31 32 33 34 35 36 37 38 39 40 41 42 43 44 45 46 47 48 49 50
000
ASUS45 KABQ 270510
RWRNM
WEATHER ROUNDUP FOR NEW MEXICO
NATIONAL WEATHER SERVICE ALBUQUERQUE NM
1100 PM MDT THU MAR 26 2015

NOTE: "FAIR" MEANS FEW OR NO CLOUDS BELOW 12,000 FEET AGL WITH NO
       SIGNIFICANT WEATHER OR OBSTRUCTIONS TO VISION.

      THIS PRODUCT IS RELEASED AS TWO VERSIONS.  ONE VERSION NEAR
      THE TOP OF THE HOUR CONTAINING PRELIMINARY DATA FROM ALBUQUERQUE
      AND OTHER STATIONS.  A FINAL VERSION WITH ADDITIONAL DATA IS
      ISSUED ABOUT 10 MINUTES AFTER THE HOUR.

NMZ501-503-504-510>518-270600-
NORTHWEST PLATEAU/NORTHCENTRAL MOUNTAINS

CITY           SKY/WX    TMP DP  RH WIND       PRES   REMARKS
FARMINGTON     CLEAR     50  15  24 W14       30.25S
LOS ALAMOS     CLEAR     51  14  23 CALM      30.29F
SANTA FE       PTCLDY    42  16  34 E7        30.26R
TAOS           PTCLDY    41  16  36 SW13      30.28R
ANGEL FIRE     FAIR      38  18  44 CALM      30.31S

$$
NMZ402-403-502-505>509-270600-
WESTCENTRAL MOUNTAINS/SOUTHWEST MOUNTAINS

CITY           SKY/WX    TMP DP  RH WIND       PRES   REMARKS
GALLUP         CLEAR     38  11  32 NE5       30.34R WCI  34
GRANTS         CLEAR     38  16  41 CALM      30.35R
SILVER CITY    CLEAR     45  23  42 N9        30.31R

$$
NMZ407-409-411-412-270600-
SOUTHERN DESERTS

CITY           SKY/WX    TMP DP  RH WIND       PRES   REMARKS
LORDSBURG      FAIR      48  21  34 S6        30.24R
DEMING         CLEAR     50  25  37 CALM      30.25R
LAS CRUCES     CLEAR     46  16  29 CALM      30.26R
ALAMOGORDO     PTCLDY    48  18  29 SE5       30.24S
T OR C         CLEAR     52  21  29 W6        30.24S

$$
NMZ519>523-270600-
CENTRAL VALLEYS/CENTRAL HIGHLANDS

CITY           SKY/WX    TMP DP  RH WIND       PRES   REMARKS
ALBUQUERQUE    PTCLDY    52  19  27 S3        30.26S
DOUBLE EAGLE   CLEAR     45  18  34 SW8       30.29R
MORIARTY ARPT  FAIR      41  15  34 CALM      30.29R
CLINES CORNERS MOCLDY    46  16  30 W16       30.26S
BELEN          FAIR      44  18  36 CALM      30.27R
SOCORRO        FAIR      51  17  25 S6        30.25S

$$
NMZ524>526-539-540-270600-
SOUTHCENTRAL MOUNTAINS

CITY           SKY/WX    TMP DP  RH WIND       PRES   REMARKS
RUIDOSO        CLEAR     45  10  24 CALM      30.31F

$$
NMZ527>531-270600-
NORTHEAST HIGHLANDS/NORTHEAST PLAINS

CITY           SKY/WX    TMP DP  RH WIND       PRES   REMARKS
LAS VEGAS      MOCLDY    48  15  26 SW3       30.23S
RATON          CLOUDY    44  23  43 N8        30.24R
CLAYTON        CLOUDY    43  26  51 NW3       30.21S

$$
NMZ532>537-270600-
EASTCENTRAL PLAINS

CITY           SKY/WX    TMP DP  RH WIND       PRES   REMARKS
TUCUMCARI      CLEAR     45  21  38 SW6       30.18R
CANNON AFB     CLEAR     45  21  38 SW9       30.21S
CLOVIS AIRPORT CLEAR     45  19  36 W10       30.21S

$$
NMZ028-029-538-270600-
SOUTHEAST PLAINS

CITY           SKY/WX    TMP DP  RH WIND       PRES   REMARKS
ROSWELL        CLEAR     46  25  43 SW8       30.22S
ARTESIA        CLEAR     45  25  45 S12       30.22F
CARLSBAD       CLEAR     47  30  51 S8        30.23S
HOBBS          CLEAR     41  19  42 W8        30.25S


$$


USA.gov is the U.S. government's official web portal to all federal, state and local government web resources and services.